Location: Champs
(48.8539°N, 2.6040°E)
Time: 11:44:20
(UTC+00:00)

Cosmos 1953 - Pass Details

Date: 26 October 2021
Orbit: 537 x 557 km, 82.5° (Epoch: 07 December)

Event Time Altitude Azimuth Distance (km) Brightness Sun altitude
Exits shadow 05:03:13 23° 251° (WSW) 1,200 3.5 -14.4°
Drops below altitude 10° 05:05:38 10° 216° (SW) 1,813 4.6 -14.0°
Sets 05:08:03 0° 203° (SSW) 2,696 5.6 -13.6°
